Hourly Data Report for April 19, 2017

CLYDE RIVER A
NUNAVUT

70°29'09.000" N
68°31'01.000" W
26.50 m
2400804
71090
YCY

Download Data

Hourly Data (April 2017)
Hourly Data Report for April 19, 2017
TIME
LST
Temp Definition
°C
Dew Point Definition
°C
Rel Hum Definition
%
Precip. Amount Definition
mm

Wind Dir Definition
10's deg

Wind Spd Definition
km/h
Visibility Definition
km
Stn Press Definition
kPa
Hmdx Definition


Wind Chill Definition


Weather Definition


00:00 -27.3 -29.6 81 0.0 33 8 16.1 101.16   -35 LegendNANA
01:00 -27.6 -30.5 77 0.0 33 9 16.1 101.20   -36 LegendNANA
02:00 -28.5 -31.1 79 0.0 35 5 16.1 101.24   -34 LegendNANA
03:00 -28.9 -31.6 78 0.0 32 8 16.1 101.28   -37 LegendNANA
04:00 -27.4 -30.1 78 0.0 28 5 16.1 101.31   -33 LegendNANA
05:00 -25.9 -28.5 79 0.0 32 5 16.1 101.35   -31 LegendNANA
06:00 -23.4 -25.8 81 0.0   0 16.1 101.39     LegendNANA
07:00 -21.0 -23.0 84 0.0 29 5 8.1 101.42   -25 Fog
08:00 -19.7 -21.6 85 0.0 31 5 4.8 101.43   -24 Fog
09:00 -18.2 -20.2 85 0.0 30 5 16.1 101.45   -22 Snow
10:00 -17.6 -20.0 82 0.0 35 4 16.1 101.46   -21 Snow
11:00 -17.1 -19.9 79 0.0 2 5 16.1 101.47   -21 LegendNANA
12:00 -16.7 -19.7 78 0.0   0 16.1 101.49     LegendNANA
13:00 -15.7 -19.2 75 0.0 24 5 16.1 101.50   -19 LegendNANA
14:00 -15.9 -19.1 77 0.0 3 9 16.1 101.53   -22 LegendNANA
15:00 -15.7 -18.3 81 0.0 2 15 1.2 101.57   -24 Snow
16:00 -15.7 -18.0 83 0.0 3 13 16.1 101.60   -23 LegendNANA
17:00 -15.5 -17.8 83 0.0 25 9 16.1 101.64   -21 Snow
18:00 -15.6 -17.7 84 0.0 32 5 16.1 101.69   -19 Snow
19:00 -16.0 -18.6 81 0.0 2 4 16.1 101.73   -19 Snow
20:00 -17.0 -19.2 84 0.0 LegendMM 4 16.1 101.76   -20 Snow
21:00 -16.8 -18.8 85 0.0 36 9 4.8 101.78   -23 Snow
22:00 -17.6 -19.6 85 0.0 LegendMM 4 8.1 101.80   -21 Snow
23:00 -18.7 -20.6 86 0.0 27 8 16.1 101.81   -25 Snow

Notes on Data Quality.

Legend

  • E = Estimated
  • M = Missing
  • NA = Not Available*
  • [empty] = Indicates an unobserved value
Date modified: